Shenandoah, IA

5:16 PM CST on December 18, 2017 (GMT -0600)
Shenandoah Municipal

Weather History for KSDA - June, 2011

Change the Weather History Date:

Sunday, June 5, 2011

  Actual Average Record
Temperature  
Mean Temperature 80 °F -  
Max Temperature 95 °F 82 °F 98 °F (1977)
Min Temperature 66 °F 57 °F 46 °F (1951)
Cooling Degree Days 16    
Growing Degree Days 30 (Base 50)    
Moisture  
Dew Point 62 °F    
Average Humidity 58    
Maximum Humidity 94    
Minimum Humidity 20    
Precipitation  
Precipitation 0.00 in - - ()
Sea Level Pressure  
Sea Level Pressure 30.02 in    
Wind  
Wind Speed 4 mph (South)    
Max Wind Speed 20 mph    
Max Gust Speed 24 mph    
Visibility 9 miles    
Events      
Averages and records for this station are not official NWS values.
T = Trace of Precipitation, MM = Missing Value Source: NWS Daily Summary

Daily Weather History Graph

Daily Weather History Graph

Search for Another Location

Airport or City:

Trip Planner

Search our weather history database for the weather conditions in past years. The results will help you decide how hot, cold, wet, or windy it might be!

Date:

Astronomy

Jun. 05, 2011 Rise Set
Actual Time 5:51 AM CDT 8:49 PM CDT
Civil Twilight 5:18 AM CDT 9:22 PM CDT
Nautical Twilight 4:36 AM CDT 10:04 PM CDT
Astronomical Twilight 3:47 AM CDT 10:52 PM CDT
Moon 9:31 AM CDT (6/5) 11:53 PM CDT (6/5)
Length of Visible Light 16h 04m
Length of Day
14h 58m
Waxing Crescent, 16% of the Moon is Illuminated
Jun 5
Waxing Crescent
Jun 8
First Quarter
Jun 15
Full
Jun 23
Last Quarter
Jul 1
New

Hourly Weather History & Observations

Time (CDT) Temp. Heat Index Dew Point Humidity Pressure Visibility Wind Dir Wind Speed Gust Speed Precip Events Conditions
12:38 AM 71.6 °F - 64.4 °F 78% 30.11 in 10.0 mi NE 3.5 mph - N/A   Clear
12:56 AM 71.6 °F - 66.2 °F 83% 30.10 in 10.0 mi Calm Calm - N/A   Clear
1:19 AM 71.6 °F - 66.2 °F 83% 30.10 in 10.0 mi Calm Calm - N/A   Clear
1:37 AM 71.6 °F - 66.2 °F 83% 30.10 in 10.0 mi NE 3.5 mph - N/A   Clear
1:56 AM 71.6 °F - 66.2 °F 83% 30.09 in 10.0 mi East 3.5 mph - N/A   Clear
2:16 AM 71.6 °F - 66.2 °F 83% 30.08 in 10.0 mi ESE 4.6 mph - N/A   Clear
2:37 AM 71.6 °F - 66.2 °F 83% 30.08 in 10.0 mi ESE 5.8 mph - N/A   Clear
3:02 AM 71.6 °F - 66.2 °F 83% 30.07 in 10.0 mi ESE 4.6 mph - N/A   Clear
3:16 AM 71.6 °F - 66.2 °F 83% 30.07 in 10.0 mi ESE 3.5 mph - N/A   Clear
3:56 AM 69.8 °F - 66.2 °F 88% 30.07 in 10.0 mi ESE 3.5 mph - N/A   Clear
4:17 AM 69.8 °F - 66.2 °F 88% 30.07 in 10.0 mi Calm Calm - N/A   Clear
4:39 AM 69.8 °F - 64.4 °F 83% 30.06 in 7.0 mi Calm Calm - N/A   Clear
4:58 AM 69.8 °F - 64.4 °F 83% 30.06 in 7.0 mi Calm Calm - N/A   Clear
5:16 AM 68.0 °F - 64.4 °F 88% 30.06 in 7.0 mi Calm Calm - N/A   Scattered Clouds
5:42 AM 68.0 °F - 64.4 °F 88% 30.06 in 5.0 mi NE 3.5 mph - N/A   Scattered Clouds
5:56 AM 66.2 °F - 64.4 °F 94% 30.06 in 3.0 mi Calm Calm - N/A   Clear
6:17 AM 68.0 °F - 64.4 °F 88% 30.06 in 4.0 mi Calm Calm - N/A   Clear
6:38 AM 66.2 °F - 62.6 °F 88% 30.06 in 2.5 mi Calm Calm - N/A   Clear
6:56 AM 66.2 °F - 64.4 °F 94% 30.07 in 2.5 mi Calm Calm - N/A   Clear
7:37 AM 69.8 °F - 66.2 °F 88% 30.07 in 4.0 mi NE 3.5 mph - N/A   Clear
7:56 AM 71.6 °F - 66.2 °F 83% 30.07 in 5.0 mi Calm Calm - N/A   Clear
8:18 AM 71.6 °F - 66.2 °F 83% 30.06 in 7.0 mi Calm Calm - N/A   Clear
9:01 AM 75.2 °F - 66.2 °F 73% 30.07 in 10.0 mi Calm Calm - N/A   Clear
9:16 AM 75.2 °F - 66.2 °F 73% 30.07 in 10.0 mi West 3.5 mph - N/A   Clear
9:37 AM 77.0 °F - 66.2 °F 69% 30.06 in 10.0 mi Calm Calm - N/A   Clear
9:58 AM 78.8 °F - 68.0 °F 69% 30.06 in 10.0 mi Calm Calm - N/A   Clear
10:16 AM 80.6 °F 83.2 °F 68.0 °F 65% 30.05 in 10.0 mi Calm Calm - N/A   Clear
10:38 AM 80.6 °F 83.2 °F 68.0 °F 65% 30.05 in 10.0 mi ENE 3.5 mph - N/A   Clear
10:57 AM 82.4 °F 86.3 °F 69.8 °F 66% 30.05 in 10.0 mi SE 3.5 mph - N/A   Clear
11:21 AM 82.4 °F 85.4 °F 68.0 °F 62% 30.05 in 10.0 mi Calm Calm - N/A   Clear
11:42 AM 84.2 °F 87.3 °F 68.0 °F 58% 30.05 in 10.0 mi Calm Calm - N/A   Unknown
11:57 AM 84.2 °F 85.6 °F 64.4 °F 51% 30.05 in 10.0 mi SE 5.8 mph - N/A   Unknown
12:16 PM 86.0 °F 88.2 °F 66.2 °F 51% 30.05 in 10.0 mi Calm Calm - N/A   Unknown
12:36 PM 87.8 °F 89.4 °F 64.4 °F 46% 30.04 in 10.0 mi Calm Calm - N/A   Unknown
1:00 PM 89.6 °F 90.1 °F 62.6 °F 40% 30.03 in 10.0 mi Calm Calm - N/A   Unknown
1:17 PM 89.6 °F 88.1 °F 57.2 °F 33% 30.03 in 10.0 mi Calm Calm - N/A   Unknown
1:36 PM 91.4 °F 89.9 °F 57.2 °F 31% 30.02 in 10.0 mi Calm Calm - N/A   Unknown
1:59 PM 93.2 °F 90.8 °F 53.6 °F 26% 30.01 in 10.0 mi SSW 5.8 mph - N/A   Unknown
2:20 PM 93.2 °F 90.8 °F 53.6 °F 26% 30.00 in 10.0 mi South 5.8 mph - N/A   Unknown
2:39 PM 95.0 °F - 48.2 °F 20% 30.00 in 10.0 mi SW 6.9 mph - N/A   Unknown
2:59 PM 95.0 °F - 48.2 °F 20% 29.99 in 10.0 mi SW 9.2 mph - N/A   Unknown
3:17 PM 95.0 °F - 51.8 °F 23% 29.99 in 10.0 mi SSW 6.9 mph - N/A   Unknown
3:36 PM 95.0 °F - 51.8 °F 23% 29.98 in 10.0 mi South 9.2 mph 18.4 mph N/A   Unknown
4:02 PM 95.0 °F - 51.8 °F 23% 29.98 in 10.0 mi South 10.4 mph - N/A   Unknown
4:16 PM 95.0 °F - 51.8 °F 23% 29.97 in 10.0 mi SSW 12.7 mph 19.6 mph N/A   Unknown
4:36 PM 95.0 °F 92.7 °F 53.6 °F 25% 29.96 in 10.0 mi South 16.1 mph 19.6 mph N/A   Unknown
4:58 PM 95.0 °F - 51.8 °F 23% 29.96 in 10.0 mi SSW 19.6 mph 24.2 mph N/A   Unknown
5:38 PM 95.0 °F - 51.8 °F 23% 29.95 in 10.0 mi SSW 17.3 mph 20.7 mph N/A   Unknown
5:58 PM 95.0 °F - 50.0 °F 22% 29.94 in 10.0 mi SW 17.3 mph - N/A   Unknown
6:18 PM 93.2 °F 90.8 °F 53.6 °F 26% 29.94 in 10.0 mi SSW 17.3 mph 23.0 mph N/A   Unknown
6:56 PM 93.2 °F 91.9 °F 57.2 °F 30% 29.93 in 10.0 mi SSW 13.8 mph - N/A   Unknown
7:16 PM 91.4 °F 90.7 °F 59.0 °F 34% 29.93 in 10.0 mi SSW 12.7 mph - N/A   Unknown
7:38 PM 91.4 °F 92.1 °F 62.6 °F 38% 29.93 in 10.0 mi South 15.0 mph - N/A   Unknown
7:56 PM 89.6 °F 90.1 °F 62.6 °F 40% 29.93 in 10.0 mi South 13.8 mph 18.4 mph N/A   Unknown
8:36 PM 87.8 °F 89.4 °F 64.4 °F 46% 29.93 in 10.0 mi South 9.2 mph - N/A   Unknown
8:56 PM 86.0 °F 86.6 °F 62.6 °F 45% 29.93 in 10.0 mi South 10.4 mph - N/A   Unknown
9:16 PM 84.2 °F 85.0 °F 62.6 °F 48% 29.93 in 10.0 mi South 9.2 mph - N/A   Unknown
9:36 PM 82.4 °F 82.9 °F 60.8 °F 48% 29.93 in 10.0 mi South 9.2 mph - N/A   Unknown
9:56 PM 82.4 °F 83.4 °F 62.6 °F 51% 29.93 in 10.0 mi South 8.1 mph - N/A   Unknown
10:21 PM 80.6 °F 81.8 °F 62.6 °F 54% 29.94 in 10.0 mi South 8.1 mph - N/A   Unknown
10:57 PM 80.6 °F 81.8 °F 62.6 °F 54% 29.93 in 10.0 mi South 10.4 mph - N/A   Clear
11:38 PM 78.8 °F - 62.6 °F 57% 29.93 in 10.0 mi South 10.4 mph - N/A   Clear
11:59 PM 78.8 °F - 60.8 °F 54% 29.93 in 10.0 mi South 9.2 mph - N/A   Clear